140P/Bowell-Skiff (2015)

Japanese version
Home page
Updated on June 11, 2016

---------------------------------------------------------------------

* Profile

* Orbital Elements

Epoch 2015 Aug. 6.0 TT = JDT 2457240.5
T 2015 Aug. 8.63320 TT                                  MPCW
q   1.9877704            (2000.0)            P               Q
n   0.06011935     Peri.  172.94112     -0.91599560     -0.40073600
a   6.4534689      Node   343.39525     +0.36474860     -0.81208923
e   0.6919842      Incl.    3.82129     +0.16706438     -0.42417182
P  16.4
From 113 observations 1983 Mar. 9-1999 May 8, mean residual 0".8.

* Finding Charts

* Magnitudes Graph

        m1 = 7.4 + 5 log d + 23 log r

---------------------------------------------------------------------

The orbital elements are published on M.P.E.C. 2015-E14.
The charts are made with StellaNavigator Ver.8 (AstroArts).
The magnitudes graphs are made with Comet for Windows.

---------------------------------------------------------------------

Copyright(C) Seiichi Yoshida (comet@aerith.net). All rights reserved.